Wind_Speed
8 7 7 7 6 5 5 4 4 3 2 3 4 5 6 7 8 9 10 11 12 13 14 14 15 16 16 17 17 16 16 16 17 17 18 19 20 21 21 21 21 21 21 22 22 22 22 23 23 23 23 23 24 24 25 25 25 25 26 26 26 27 28 29 29 30 31 31 31
8 7 8 8 7 6 5 4 4 3 3 3 4 5 6 7 8 10 11 12 12 13 14 15 16 16 17 17 16 16 16 16 17 19 20 21 21 21 21 22 22 22 22 22 22 22 22 23 23 23 23 24 24 25 25 26 26 26 27 28 28 28 28 29 30 30 31 31 32
8 8 8 7 6 5 4 4 3 4 5 6 6 6 7 8 9 10 11 12 13 13 14 15 15 16 16 16 15 15 16 17 19 20 21 21 21 21 21 21 22 22 22 22 22 22 22 23 23 23 23 24 24 25 25 26 26 27 27 28 28 28 28 28 29 29 30 30 31
8 7 7 6 4 3 3 3 4 5 6 7 7 7 8 9 10 11 12 12 13 13 14 14 15 15 14 14 15 16 18 19 20 21 21 21 21 21 21 21 21 22 22 22 22 22 22 23 23 23 23 23 24 25 25 25 25 26 27 27 28 28 28 29 29 29 29 29 30
8 7 5 4 2 1 2 2 4 5 6 7 7 8 9 10 11 12 13 13 14 14 15 16 16 16 15 15 17 18 19 20 20 20 20 21 21 21 21 21 21 22 22 22 22 22 22 23 23 23 23 23 24 24 24 24 25 26 26 26 27 27 27 28 28 28 29 29 29
8 7 5 3 2 1 2 3 4 5 6 7 8 9 10 11 12 13 14 15 16 17 17 18 18 17 17 18 19 19 20 20 20 20 20 20 21 21 21 21 22 22 22 22 22 22 23 23 23 23 23 23 23 24 24 24 25 25 26 26 26 26 27 27 28 28 28 29 30
7 6 4 3 2 1 2 3 4 5 6 7 8 10 11 12 13 15 16 17 18 18 18 18 17 18 18 19 19 19 20 20 20 20 21 21 21 21 22 22 22 22 22 22 23 23 23 23 23 23 23 23 24 24 24 24 25 25 25 26 26 26 26 27 27 27 28 29 29
4 2 2 2 1 2 3 4 5 6 8 9 10 11 13 14 15 16 17 18 18 18 17 17 17 18 18 19 19 20 20 21 21 21 21 21 22 22 22 23 23 23 23 23 23 23 23 23 23 23 23 23 23 24 24 24 25 25 26 26 27 26 27 27 27 27 28 28 29
2 1 1 2 3 4 4 5 6 7 9 10 12 13 14 15 16 17 17 17 17 17 17 17 18 18 19 20 20 21 21 21 21 21 22 22 22 23 23 23 23 23 23 23 23 24 24 24 24 24 24 24 24 25 25 25 26 27 27 27 28 28 28 28 28 28 29 29 30
1 1 2 3 4 5 6 7 8 9 10 12 13 14 15 15 16 16 16 16 16 17 17 18 19 19 20 20 21 21 21 21 21 22 22 22 22 23 23 23 23 23 24 24 24 24 24 24 24 25 25 25 26 27 27 27 28 28 29 28 28 29 29 29 30 30 30 31 31
0 2 3 4 5 6 7 8 9 10 12 13 14 15 15 15 15 16 16 16 17 17 18 19 19 20 20 21 21 21 21 21 21 21 22 22 22 23 23 23 24 24 24 24 24 24 24 25 25 26 27 27 27 28 29 29 29 30 30 30 30 30 31 31 31 31 31 32 32
1 3 4 6 7 8 9 10 11 12 13 14 14 15 15 15 15 15 16 16 17 18 19 19 19 20 20 20 20 20 21 21 21 22 22 23 23 23 24 24 25 25 26 26 26 25 25 26 26 27 28 29 28 29 29 29 30 30 31 31 31 32 32 33 33 32 32 32 32
3 4 5 7 8 9 10 11 12 12 13 14 14 14 14 14 15 15 16 17 18 18 19 19 19 19 19 20 20 20 20 21 21 22 22 23 24 24 25 25 26 26 27 27 26 26 26 27 28 28 29 30 29 29 29 30 30 31 31 32 32 32 33 33 33 33 33 33 33
5 6 7 8 9 10 11 12 12 13 13 13 13 13 14 14 15 15 16 17 17 18 18 19 19 19 19 19 20 20 21 21 22 23 23 24 25 25 26 26 26 27 27 27 27 27 27 28 28 29 30 30 30 31 31 31 31 31 32 32 32 33 33 33 34 34 34 34 34
6 7 8 9 10 10 11 12 12 12 12 13 13 13 14 14 15 16 16 17 17 18 18 18 18 19 19 19 20 21 21 22 23 23 24 25 25 26 26 26 27 27 27 27 27 28 28 28 29 29 30 30 31 31 31 31 32 32 32 32 33 33 33 34 34 34 34 34 34
8 8 9 10 10 11 11 12 12 12 12 12 13 13 14 15 16 16 16 17 17 17 17 18 18 19 19 20 20 21 21 22 23 23 24 25 25 26 26 27 27 27 28 28 28 28 28 29 29 29 30 30 31 31 31 32 32 32 33 33 33 33 34 34 34 34 34 34 34
7 8 9 10 10 11 11 12 12 12 12 13 14 14 15 15 16 16 16 17 17 17 18 19 19 19 20 20 21 21 21 22 23 23 24 25 25 26 26 27 27 27 28 28 28 29 29 29 29 29 29 30 30 31 31 31 32 32 32 33 33 33 33 33 33 33 33 33 34
7 8 9 10 10 11 12 12 12 13 13 14 14 15 16 16 16 17 17 17 17 18 19 19 20 20 20 21 21 21 22 22 23 24 24 25 26 26 27 27 28 28 28 28 28 29 29 29 29 29 29 29 30 30 31 31 31 32 32 32 32 32 32 32 31 31 31 31 32
8 9 9 10 11 11 12 12 13 13 14 14 15 16 16 16 17 17 18 18 18 18 19 20 20 21 21 22 22 22 23 23 24 25 25 26 26 27 27 27 28 28 28 28 28 28 28 28 28 28 29 29 29 30 30 30 30 30 30 30 30 29 29 29 29 28 28 29 29
8 9 10 10 11 11 12 12 13 13 14 15 15 16 17 17 17 18 18 19 19 19 19 20 21 21 22 22 23 23 24 24 24 25 26 26 26 27 27 27 27 27 28 28 28 28 28 28 28 28 29 29 29 29 29 29 28 28 28 28 28 28 29 28 28 28 29 29 29
9 9 10 10 11 12 12 12 13 13 14 15 16 17 17 18 18 18 19 19 19 19 20 20 21 22 22 23 23 24 24 24 25 25 26 26 26 27 27 27 27 27 27 27 27 28 28 28 28 28 28 28 28 28 28 28 28 28 28 28 28 29 29 29 29 30 30 30 31
9 10 10 11 11 12 12 12 13 14 15 15 16 17 17 18 18 19 19 19 19 20 20 21 21 22 23 23 24 24 25 25 25 25 26 26 26 26 26 26 26 27 27 27 28 28 28 28 28 27 26 26 26 26 26 26 27 27 27 28 28 28 28 28 29 29 30 31 31
10 10 11 11 11 11 12 12 13 14 15 16 16 17 18 18 19 19 19 19 19 20 20 21 22 22 23 23 24 25 25 26 26 26 26 26 27 27 26 26 26 27 27 27 27 27 27 26 26 25 24 23 24 24 25 25 25 25 26 26 27 27 27 27 28 28 29 29 29
11 11 11 11 11 11 12 12 13 14 15 16 17 17 18 18 19 19 19 19 20 20 21 21 22 23 23 24 25 25 26 26 27 27 27 27 27 26 26 26 26 26 26 26 26 26 25 24 23 23 22 22 23 23 24 24 24 25 25 26 26 26 27 27 27 28 28 28 29
11 11 11 10 11 11 12 13 14 15 16 16 17 17 18 19 19 19 19 20 20 21 21 22 23 23 24 24 25 25 25 26 26 26 27 26 26 26 26 26 26 26 26 26 26 26 25 23 22 22 22 23 24 25 25 25 25 25 26 26 26 27 27 28 28 28 29 29 29
11 10 10 10 11 12 13 13 14 15 16 16 17 17 18 19 19 19 20 20 21 22 22 23 23 24 24 24 25 25 25 25 25 25 26 26 26 26 26 26 26 26 26 25 25 25 24 23 23 23 23 24 25 25 26 26 26 26 26 27 27 27 28 28 29 29 29 29 29
10 10 10 11 11 12 13 14 15 15 16 17 17 18 18 19 19 20 20 21 22 23 23 23 23 24 24 24 24 24 24 24 24 25 25 26 26 26 26 26 26 26 26 25 25 24 23 23 23 24 24 25 25 26 25 25 26 27 27 28 28 28 28 29 29 29 29 29 29
10 10 10 11 12 12 13 14 15 15 16 17 17 18 18 19 20 20 21 22 22 23 23 23 23 23 22 22 23 23 24 24 25 25 25 26 26 26 26 26 26 26 26 25 25 24 24 24 25 25 26 26 26 26 27 27 27 27 27 27 28 28 28 28 28 28 28 28 28
10 10 11 11 12 12 13 14 15 15 16 17 17 18 19 19 20 21 22 22 23 23 23 23 22 22 22 23 24 24 25 26 26 26 26 26 26 26 26 26 27 27 26 26 25 25 26 26 27 27 27 27 27 27 27 27 27 26 26 26 26 26 27 27 27 27 27 27 27
10 10 11 11 12 13 13 14 15 16 16 17 18 18 19 20 21 21 22 22 23 23 23 23 23 23 24 25 25 26 26 26 26 25 25 25 25 26 26 27 27 27 26 26 26 26 27 27 27 28 28 28 28 27 27 27 27 27 26 26 26 26 27 27 27 27 27 27 27
10 10 11 11 12 13 13 14 15 16 17 17 18 19 19 20 21 22 22 22 23 23 24 24 24 25 26 26 26 26 26 26 25 25 25 25 25 26 26 27 27 26 26 26 26 27 27 27 28 28 28 28 28 28 28 27 27 27 27 27 27 27 27 27 28 28 29 29 29
10 10 11 11 12 13 14 15 16 16 17 18 18 19 20 20 21 22 23 23 23 24 24 24 25 25 26 26 26 26 26 26 25 25 24 24 25 26 27 27 27 26 26 26 26 27 27 28 28 28 28 29 29 29 28 28 28 28 27 28 29 29 29 28 28 29 29 29 29
10 10 11 11 12 13 14 15 16 17 17 18 19 19 20 21 22 23 23 23 23 24 24 24 25 25 25 25 25 26 25 25 25 24 24 25 26 26 27 26 26 25 25 26 27 27 28 28 29 29 29 30 30 29 29 28 27 27 27 27 28 28 28 29 29 29 30 30 30
9 10 11 12 13 14 15 16 16 17 18 19 19 20 21 22 22 23 23 23 23 23 24 24 24 24 25 25 25 25 25 25 24 24 24 25 26 26 26 26 25 25 26 27 28 28 29 29 29 30 30 30 30 29 28 27 27 26 27 27 27 28 28 28 29 30 30 31 30
9 10 11 12 13 14 15 16 17 17 18 19 20 20 21 22 22 23 23 23 23 24 24 24 24 24 24 25 24 24 24 24 24 24 25 25 25 25 25 26 26 26 27 28 28 29 29 29 29 30 30 30 29 28 27 26 26 26 26 27 27 27 28 28 29 29 30 30 30
9 10 11 12 14 15 16 17 17 18 18 19 20 21 21 22 22 23 23 23 23 24 24 24 24 24 24 24 24 24 24 24 24 24 25 25 25 25 25 26 27 27 27 28 28 29 29 29 29 30 30 29 28 26 25 25 24 24 25 26 26 27 27 28 29 29 30 30 30
9 10 11 13 15 16 17 17 17 18 19 20 20 21 21 22 22 23 23 23 23 23 24 24 24 24 24 24 24 24 24 24 24 24 25 25 25 24 25 26 27 28 28 28 28 28 29 29 30 30 30 28 26 25 25 24 24 24 25 26 26 27 27 27 28 28 29 30 30
10 11 13 14 16 16 17 17 18 18 19 20 21 21 22 22 22 22 23 22 23 23 24 24 24 24 24 24 24 24 24 24 24 24 25 25 24 24 25 26 27 28 28 28 28 29 29 30 30 30 29 28 27 25 25 24 24 25 25 25 25 25 25 24 25 26 27 28 29
11 12 14 15 16 16 17 17 18 19 19 20 21 21 22 22 22 22 22 22 22 23 23 24 24 24 24 24 24 24 24 24 23 23 24 24 25 25 25 26 27 28 28 28 29 29 30 30 30 30 30 29 27 25 24 23 23 23 23 23 22 22 22 23 23 23 24 25 26
11 13 14 15 16 16 17 18 18 19 19 20 21 21 22 22 22 22 22 22 22 22 23 23 24 24 24 24 24 24 24 24 23 23 24 24 25 25 26 26 27 28 28 28 29 29 30 30 30 30 29 28 26 25 23 21 20 20 20 20 20 21 22 23 23 23 23 24 25
12 13 14 15 15 16 17 18 19 19 20 20 21 21 22 22 22 22 22 22 22 23 23 23 24 24 24 24 24 24 24 24 24 24 24 25 25 26 26 26 27 27 28 28 28 29 29 29 29 29 29 28 26 24 21 19 18 19 20 21 22 22 23 23 24 24 24 24 24
Wind_Direction
177 173 171 171 171 178 186 190 193 204 232 260 281 293 299 303 302 300 297 294 291 290 290 289 289 289 290 290 289 288 288 290 292 294 294 294 292 291 290 289 288 287 287 286 286 286 286 285 285 284 283 281 280 279 277 276 276 275 274 273 272 271 271 270 269 269 269 268 268
161 159 161 167 171 177 185 190 196 210 239 277 298 307 311 310 306 301 296 292 290 290 290 289 289 290 290 290 289 288 288 289 291 293 293 292 291 290 289 288 287 287 286 286 286 286 285 285 285 284 282 281 280 279 277 276 275 274 273 272 271 271 270 269 268 267 267 267 266
151 155 162 171 177 186 198 213 243 276 292 300 306 310 310 307 303 299 294 291 290 289 289 289 290 290 290 289 287 286 287 288 290 291 291 290 290 289 288 288 287 287 286 286 285 285 285 285 284 283 281 280 279 278 277 276 275 273 272 272 271 270 269 268 267 267 266 265 264
150 155 163 176 191 213 244 271 301 309 309 310 310 309 306 303 300 296 293 291 290 289 289 289 290 291 290 288 286 285 285 286 287 288 289 289 289 289 288 288 287 287 286 286 285 284 284 284 283 282 280 279 278 277 276 275 274 273 272 271 270 270 269 268 267 267 266 265 264
151 158 167 183 209 262 317 321 319 315 311 310 307 303 301 299 296 295 293 292 291 290 290 290 290 290 290 287 285 284 285 285 286 287 287 288 288 288 287 287 287 286 286 285 284 284 283 282 281 280 278 277 276 275 274 274 274 273 272 271 270 269 268 268 267 267 266 265 265
156 162 167 174 193 257 304 313 312 310 307 304 302 299 297 296 295 295 294 293 292 291 290 290 289 288 287 285 285 285 285 285 285 286 286 286 286 286 286 285 285 285 284 283 283 282 281 280 279 278 277 276 275 274 273 273 273 272 271 270 269 269 268 267 267 266 266 265 264
164 169 175 177 181 252 300 305 307 306 304 301 298 296 295 295 295 294 293 291 289 288 287 286 285 285 285 285 285 285 285 285 285 285 285 284 284 284 284 284 283 283 282 282 281 281 280 278 278 277 276 275 274 273 273 271 271 270 270 269 269 268 268 267 267 267 266 265 265
175 191 217 240 263 288 299 302 302 301 300 297 296 295 295 295 294 292 290 287 284 283 283 283 282 283 283 284 285 285 285 285 284 284 283 283 283 283 283 282 282 281 281 281 280 279 278 278 277 275 275 274 273 272 272 270 269 268 268 268 268 267 267 267 267 266 266 265 265
164 216 268 283 290 296 298 300 298 298 297 297 296 296 295 294 291 288 284 281 280 280 281 281 282 283 284 284 284 284 284 283 283 282 281 281 281 281 281 280 280 279 279 279 278 278 277 277 276 274 273 273 272 272 271 271 269 268 267 267 267 267 266 265 265 265 265 264 264
156 274 289 293 295 296 297 297 297 297 297 297 296 295 293 290 286 282 279 278 278 279 281 282 283 285 285 285 284 283 283 282 281 280 280 279 279 278 278 278 277 277 277 277 277 276 276 276 275 273 272 272 271 271 271 270 270 269 267 267 266 266 265 264 264 263 263 263 263
248 286 292 294 295 295 295 295 296 296 297 296 294 293 290 285 281 278 278 279 280 282 283 285 286 287 286 285 284 283 282 281 280 279 279 278 277 277 277 276 276 276 276 277 276 276 275 274 273 272 271 271 270 270 270 270 269 268 267 266 265 265 265 264 263 263 262 262 262
301 293 291 291 291 292 292 292 293 293 293 291 290 287 284 281 279 279 281 283 284 285 287 288 288 288 287 286 284 283 282 281 280 280 279 279 279 279 279 278 278 278 278 278 277 276 275 273 272 271 271 270 270 269 269 268 268 267 266 266 265 264 264 263 263 262 262 262 262
299 294 290 288 288 288 288 288 288 287 286 284 282 280 279 279 280 283 285 286 287 288 289 289 289 288 287 286 285 285 284 283 283 282 282 282 282 282 281 281 280 280 279 278 277 275 274 273 271 271 270 270 269 268 268 268 267 267 266 266 265 264 264 263 263 262 262 262 262
287 288 287 284 284 283 281 280 279 279 278 278 277 278 279 281 284 286 287 287 288 288 289 289 289 288 287 286 286 285 285 285 284 284 283 283 282 282 282 281 280 279 279 278 276 274 273 272 271 271 270 270 269 269 268 267 267 266 266 266 265 264 264 264 263 263 263 263 263
276 278 277 275 273 272 271 271 272 273 274 275 277 280 283 285 287 288 288 288 288 288 288 288 288 287 286 286 285 285 285 284 284 284 283 282 282 281 281 280 280 279 278 278 276 275 273 272 272 271 271 271 270 270 269 269 268 267 267 266 266 265 265 265 265 264 264 264 263
263 264 264 263 262 262 264 266 269 272 275 278 281 284 286 287 288 288 288 288 288 288 287 287 287 287 287 286 285 285 284 284 283 283 282 282 281 281 281 280 280 279 279 278 277 276 274 273 272 272 271 271 271 271 270 270 269 269 268 268 267 267 267 266 266 266 265 264 264
252 255 257 259 260 262 265 268 272 276 279 282 285 287 288 288 288 288 287 287 287 287 287 287 287 287 287 286 286 285 284 284 283 282 282 281 281 281 281 280 280 280 279 278 278 277 275 274 273 273 272 272 272 272 271 271 271 270 270 269 269 268 268 268 267 267 267 266 265
253 257 260 262 265 267 270 273 276 279 282 285 287 288 288 288 288 288 287 286 286 286 286 286 286 286 286 285 285 284 284 283 282 281 281 281 280 280 280 280 280 279 279 278 277 277 276 275 275 274 274 273 273 273 272 272 272 272 272 272 271 271 271 270 270 269 269 268 267
262 265 267 268 270 273 275 278 280 282 284 287 288 289 289 288 288 287 286 286 286 285 285 285 285 285 285 285 284 284 283 282 282 281 281 280 280 280 280 280 279 279 279 278 277 277 277 276 276 276 275 275 275 274 274 274 274 275 275 275 275 274 274 274 273 272 272 271 270
267 269 271 272 274 277 279 281 283 284 287 288 289 289 288 288 287 287 286 286 286 285 285 284 285 285 285 284 284 284 283 282 282 281 281 281 280 280 279 279 279 279 279 278 278 277 277 277 277 276 276 276 277 277 277 278 278 279 279 279 278 277 276 275 274 273 272 271 271
270 272 273 275 277 279 280 281 284 286 288 288 289 289 288 288 288 287 287 287 286 286 285 284 284 284 284 285 285 284 284 283 282 282 281 281 280 280 279 279 279 279 279 278 278 277 277 277 277 278 278 278 279 279 280 280 280 280 279 278 277 276 275 274 273 272 271 270 269
272 273 275 276 277 278 279 282 285 287 288 289 289 289 289 289 289 289 288 288 287 286 285 285 284 285 285 285 285 285 284 284 283 282 281 281 280 280 280 280 280 279 279 279 278 278 278 278 278 278 278 279 279 279 279 279 279 278 277 276 275 274 273 272 271 270 269 268 268
272 273 273 274 275 277 280 284 286 288 289 289 289 289 290 290 290 290 290 289 288 287 286 286 285 285 285 284 285 284 284 284 283 282 281 280 280 280 280 280 280 280 280 280 280 280 280 279 279 278 278 279 279 279 279 278 278 277 276 275 274 273 272 271 270 269 268 267 266
268 269 270 271 274 278 282 286 288 289 290 290 290 291 291 292 292 292 291 290 289 287 287 286 286 285 285 285 285 284 283 283 282 282 281 281 280 281 281 281 281 281 281 281 281 280 280 279 279 278 279 279 280 280 279 278 277 276 275 274 274 273 272 271 270 268 268 267 266
266 267 268 271 276 281 285 288 289 290 291 291 292 292 293 294 294 294 293 292 290 289 288 288 287 286 286 285 285 284 283 282 282 281 281 281 281 282 282 283 283 283 283 283 282 280 279 277 277 278 279 280 280 280 279 277 276 274 274 273 273 272 272 271 270 269 268 267 266
265 267 270 275 280 284 287 289 290 291 292 293 293 294 295 296 296 296 295 293 292 291 290 289 288 287 286 286 284 283 282 282 281 281 282 282 282 283 283 284 284 284 284 283 282 281 279 278 278 278 279 280 279 279 278 276 275 274 273 272 272 272 271 271 270 269 268 267 266
266 270 274 279 283 286 288 290 292 293 294 295 296 296 297 297 297 297 296 294 293 293 292 291 289 288 287 286 284 283 282 282 282 282 283 283 283 284 284 284 285 285 285 284 283 282 282 282 282 281 281 280 279 278 277 276 276 275 274 273 272 271 270 270 270 270 269 268 267
269 274 279 283 286 288 290 292 294 295 296 297 298 298 299 298 298 297 296 295 294 293 293 292 291 290 289 287 286 285 285 284 285 284 284 284 284 284 284 285 286 286 286 286 286 286 286 286 286 285 283 281 280 278 277 277 276 276 275 274 273 272 270 270 269 269 269 269 268
272 277 281 284 287 290 292 294 296 297 299 299 300 300 299 298 298 297 296 295 294 294 294 293 293 292 290 290 289 288 288 287 286 286 285 285 285 285 286 287 288 289 289 289 289 289 289 288 287 286 284 282 280 279 278 278 277 276 276 274 273 272 271 270 270 269 269 269 268
273 278 282 285 288 291 294 296 298 299 300 301 300 300 299 298 298 297 296 295 295 294 294 294 294 293 291 290 290 290 289 289 288 288 288 288 288 288 289 290 291 291 291 291 291 291 290 289 288 286 284 282 281 280 278 277 277 276 275 274 272 272 271 271 271 270 270 269 268
272 277 282 286 290 293 296 298 299 300 301 301 301 300 299 299 298 297 297 296 296 296 296 295 294 293 292 291 291 291 291 291 291 291 291 291 291 291 292 293 293 292 292 292 292 291 290 289 288 286 285 283 282 280 279 277 276 275 274 273 272 272 271 271 271 270 269 268 267
270 277 283 288 291 294 297 299 301 302 301 301 301 300 299 298 298 298 298 297 297 297 296 295 294 293 293 293 293 292 293 293 293 293 293 293 293 294 294 294 294 294 293 293 292 291 290 289 288 286 285 284 283 281 279 277 276 275 273 273 272 272 272 271 270 269 268 267 266
270 277 283 288 293 296 299 301 301 302 302 301 301 299 298 298 298 298 297 297 297 296 296 295 295 294 294 294 294 294 294 294 294 294 294 294 295 296 296 296 295 294 294 293 292 291 290 289 288 287 287 286 284 282 281 279 277 276 275 274 273 272 271 270 269 268 267 266 265
271 278 285 290 294 298 300 301 302 302 302 301 300 299 298 298 298 297 297 297 297 296 296 295 295 295 295 295 295 295 295 295 295 295 295 296 297 297 297 296 295 294 293 293 292 291 291 290 289 289 288 287 286 284 282 281 278 277 276 275 274 274 272 271 270 268 267 266 264
278 285 291 295 298 300 301 302 302 302 301 300 298 298 297 297 297 296 296 297 297 297 296 296 296 295 295 295 295 295 296 296 296 296 297 298 298 298 297 296 295 294 293 293 292 292 292 291 291 290 289 289 287 286 284 283 280 278 277 276 276 275 274 273 272 271 269 267 264
291 296 300 301 302 302 303 303 302 301 300 298 297 296 296 296 297 297 298 299 299 298 297 297 297 297 297 297 297 297 297 297 297 298 298 299 299 299 297 296 295 295 294 294 293 293 293 293 292 291 290 290 288 287 285 284 281 279 279 278 278 276 275 276 274 273 271 269 266
300 304 305 305 305 304 303 302 301 300 298 298 297 296 297 297 298 299 300 300 300 299 299 299 298 298 298 298 299 298 298 298 299 299 300 300 300 299 298 297 296 296 295 295 294 293 293 293 292 291 291 290 289 287 286 284 282 281 281 280 279 278 278 276 276 275 274 273 271
305 307 308 307 306 304 302 301 299 298 297 297 297 298 299 300 300 301 301 302 301 300 299 299 299 299 299 299 300 299 299 299 299 300 301 301 301 300 299 297 296 296 296 295 294 293 293 293 292 292 291 290 289 288 286 285 283 282 281 280 280 279 279 279 279 279 279 277 275
307 308 308 306 304 302 300 299 298 297 297 298 299 300 300 301 301 301 302 301 300 299 299 299 299 299 300 301 301 301 300 300 300 301 301 301 301 299 298 296 296 295 295 295 294 293 293 292 292 292 292 291 289 288 286 284 282 282 282 282 283 284 286 287 287 286 283 281 279
306 307 307 305 302 300 299 298 298 298 298 299 300 300 301 301 301 301 301 301 300 300 299 299 299 300 301 302 302 301 301 302 302 302 302 302 300 299 297 295 294 294 294 294 294 293 293 292 292 293 293 292 291 289 288 286 286 287 290 292 295 296 296 295 293 291 288 285 283
306 307 306 303 301 299 298 298 298 299 300 300 300 301 301 301 301 301 301 301 301 301 301 300 300 301 301 302 302 302 303 303 303 303 303 302 300 298 297 295 294 295 295 295 294 293 293 292 292 293 293 292 292 292 293 295 298 301 303 303 303 301 300 298 296 293 291 288 286
Height
784 786 787 788 789 789 790 791 791 791 792 792 792 792 792 792 792 792 793 793 793 793 793 792 792 792 791 791 791 790 790 789 789 789 789 788 788 787 787 786 785 785 784 784 783 782 782 781 781 780 779 778 777 777 776 776 775 775 774 773 773 772 772 771 770 769 769 769 768
784 785 786 787 788 789 790 790 791 791 791 791 791 791 791 792 792 792 792 792 792 792 792 792 791 791 790 790 790 789 789 789 788 788 788 787 787 786 785 785 784 783 783 782 782 781 781 780 779 778 777 776 776 775 774 774 774 773 772 772 771 771 770 769 768 767 767 767 766
784 785 786 787 788 789 789 790 790 790 790 791 791 791 791 791 792 792 792 792 792 791 791 791 790 790 789 789 789 788 788 788 787 787 786 786 785 784 784 783 782 782 782 781 781 780 779 778 778 777 776 775 774 773 773 772 772 772 771 770 769 769 768 767 766 766 765 765 764
784 785 787 787 788 789 789 789 789 790 790 790 790 791 791 791 791 791 791 791 791 790 790 790 789 789 788 788 788 787 787 787 786 786 785 784 783 783 782 782 781 781 780 780 779 778 778 777 777 775 774 773 773 772 771 771 770 770 769 768 767 767 766 765 764 764 763 762 762
784 785 786 787 788 788 788 789 789 789 790 790 790 790 790 790 790 790 790 790 790 789 789 789 788 788 787 787 787 787 786 785 785 784 783 783 782 782 781 781 780 779 778 778 777 777 776 776 775 774 773 772 771 770 769 769 768 768 767 766 766 765 764 763 762 762 761 760 760
784 785 786 787 787 788 788 788 789 789 789 789 790 790 790 789 789 789 789 789 788 788 788 787 787 787 787 786 786 785 784 784 783 783 782 781 781 780 779 779 778 778 777 776 776 775 775 774 773 772 771 770 769 768 768 767 767 766 765 764 763 763 762 761 760 760 759 758 758
783 784 785 786 786 787 787 788 788 788 789 789 789 788 788 788 788 788 788 788 787 787 787 787 786 786 785 785 784 783 783 782 782 781 781 780 779 778 778 777 777 776 775 775 774 773 773 772 771 770 769 768 767 766 766 765 765 764 763 762 762 761 760 759 758 758 757 756 756
782 783 784 785 785 786 787 787 787 787 788 788 787 787 787 787 787 787 787 787 786 786 786 785 785 784 784 783 782 782 781 781 780 779 779 778 777 777 776 775 775 774 773 773 772 772 771 770 769 768 767 766 765 764 763 763 763 762 761 760 759 759 758 757 757 756 755 754 754
781 782 783 784 785 785 786 786 786 787 787 787 787 786 786 786 786 786 785 785 785 785 784 784 783 783 782 782 781 780 780 779 778 778 777 777 776 775 774 774 773 772 772 771 770 770 769 768 767 766 765 764 763 762 761 761 760 760 759 758 757 757 756 755 755 754 753 752 752
781 782 782 783 784 784 785 785 785 786 786 786 785 785 785 784 784 784 784 784 784 783 783 782 782 781 781 780 779 779 778 777 777 776 775 775 774 773 772 772 771 770 769 769 768 767 767 766 765 764 763 762 761 760 759 759 758 757 757 756 755 754 754 753 753 752 751 751 750
780 781 782 782 783 784 784 784 784 784 785 784 784 784 783 783 783 783 782 782 782 782 781 781 780 780 779 778 778 777 777 776 775 774 773 772 772 771 770 770 769 768 767 767 766 765 765 764 762 762 761 760 759 758 757 757 756 755 754 754 753 752 751 751 750 750 749 748 747
779 780 781 782 782 783 783 783 783 784 784 783 783 782 782 782 782 781 781 781 781 780 779 779 779 778 777 777 776 775 775 774 773 772 772 771 770 769 768 767 767 766 765 764 764 763 762 761 760 759 758 757 757 756 755 754 754 753 752 751 751 750 749 748 748 747 747 746 745
779 779 780 781 782 782 782 783 783 783 782 782 782 781 781 780 780 780 780 779 779 778 778 777 777 777 776 775 774 773 773 772 771 770 770 769 768 767 766 765 765 764 763 762 762 761 760 759 758 757 756 755 754 754 753 752 752 751 750 749 748 747 747 746 745 745 744 744 743
778 779 779 780 781 781 782 782 782 781 781 780 780 780 779 779 779 779 778 778 777 777 777 776 775 775 774 773 772 772 771 770 769 769 768 767 766 765 764 763 762 762 761 760 759 759 758 757 756 755 754 752 752 751 750 750 749 748 747 747 746 745 744 743 743 742 742 741 740
777 778 779 779 780 780 781 780 780 779 779 779 778 778 778 778 778 777 777 777 776 776 775 774 774 773 772 772 771 770 769 769 768 767 766 765 764 763 762 761 760 759 759 758 757 756 755 754 753 752 751 750 749 748 748 747 747 746 745 744 743 742 741 741 740 740 739 739 738
776 777 778 778 778 779 778 778 778 778 777 777 777 777 777 777 777 776 776 775 775 774 773 773 772 772 771 770 769 769 768 767 766 765 764 763 762 761 760 759 758 757 756 755 754 754 753 752 751 750 749 748 747 746 745 745 744 743 742 741 741 740 739 738 738 737 737 736 735
775 776 776 777 777 777 777 777 777 777 776 776 776 776 776 776 775 775 774 774 773 772 772 771 771 770 769 768 767 767 766 765 764 763 762 761 760 759 758 757 756 755 754 753 752 751 750 749 749 748 747 746 745 744 743 742 742 741 740 739 738 737 736 736 735 735 734 733 733
774 775 775 775 775 776 776 776 776 776 775 775 775 775 775 774 774 773 773 772 772 771 770 769 769 768 767 767 766 765 764 763 762 761 760 759 757 757 756 755 754 753 752 751 750 749 748 747 747 746 745 744 743 742 741 740 739 738 737 737 736 735 734 733 733 732 732 731 731
773 774 774 774 774 774 775 775 775 775 775 774 774 774 773 773 772 772 771 771 770 769 769 768 767 766 766 765 764 763 762 761 760 759 758 757 756 755 753 752 752 751 750 749 748 747 746 745 744 744 743 742 741 740 739 738 737 736 735 734 734 733 732 732 731 731 730 729 728
773 773 773 774 774 774 774 774 774 774 774 773 773 773 772 772 771 770 770 769 768 767 767 766 765 764 763 763 762 761 760 759 758 757 756 754 753 752 752 750 749 748 748 747 746 745 744 743 742 741 740 739 738 737 737 736 735 734 733 733 732 731 730 730 729 729 728 727 727
772 773 773 773 773 773 773 773 773 773 773 772 772 772 771 770 769 769 768 767 767 766 765 764 763 762 762 761 760 759 758 757 756 755 753 752 751 750 749 748 747 747 746 744 743 742 742 741 740 739 738 737 737 736 735 734 733 732 732 731 730 729 729 728 727 727 726 725 725
772 772 772 772 773 773 773 772 772 772 772 771 771 770 769 769 768 767 766 766 765 764 763 762 762 761 760 759 758 757 756 755 753 752 751 750 749 748 747 746 745 744 743 742 741 740 739 738 737 737 736 735 735 734 733 733 732 731 730 729 728 727 727 726 726 725 724 723 722
772 772 772 772 772 772 772 772 771 771 770 770 769 768 768 767 766 765 765 764 763 762 762 761 760 759 758 757 756 755 753 752 751 750 749 748 747 746 745 744 743 742 741 739 738 737 737 736 735 735 734 734 733 732 732 731 730 729 728 727 726 725 724 724 723 722 721 721 720
771 771 771 771 771 771 771 770 770 769 769 768 768 767 766 765 765 764 763 762 762 761 760 759 758 757 756 755 753 752 751 750 748 747 746 745 744 743 742 742 741 739 738 737 736 735 734 734 733 732 732 732 731 730 730 729 728 727 726 725 724 723 722 721 720 719 719 718 717
770 770 770 770 770 770 769 769 769 768 767 767 766 765 765 764 763 762 762 761 760 759 758 757 756 755 753 752 751 750 749 747 746 745 744 743 742 741 740 739 738 737 735 734 733 733 732 732 731 731 730 730 729 728 727 727 726 725 724 722 721 720 719 718 717 717 716 715 714
769 769 769 769 769 768 768 768 767 767 766 765 765 764 763 762 762 761 760 759 758 757 756 755 753 752 751 750 749 747 746 745 744 742 741 740 739 738 738 737 736 734 733 732 731 731 730 730 729 729 728 728 727 726 725 724 723 722 721 720 719 717 717 715 714 713 712 712 711
768 768 768 768 768 767 767 767 766 766 765 764 763 762 762 761 760 759 758 757 756 755 754 753 752 750 749 748 746 745 744 743 742 740 739 738 737 736 735 734 733 732 731 730 729 728 728 727 727 727 727 726 725 724 722 721 720 719 718 717 716 715 714 712 711 710 709 709 708
767 767 767 767 767 766 766 765 765 764 763 763 762 761 760 760 759 757 757 755 754 753 752 751 749 748 747 745 744 742 742 740 739 738 737 736 735 734 733 732 730 729 728 727 727 727 726 725 725 725 724 724 723 722 720 719 718 717 716 714 713 712 711 709 708 707 707 706 705
766 766 766 766 765 765 765 764 764 763 762 762 761 760 759 758 757 756 755 753 752 751 750 748 747 746 745 743 742 741 739 738 737 736 735 734 732 731 730 729 728 727 726 726 725 724 724 723 723 722 722 722 721 719 718 717 715 714 713 711 710 709 708 707 706 704 704 703 702
765 765 765 765 764 764 763 763 762 762 761 760 759 758 757 756 755 754 753 752 751 749 748 747 745 744 742 741 740 738 737 736 735 734 732 731 730 729 728 727 726 725 724 724 723 722 722 721 721 720 719 719 718 717 715 714 713 711 710 708 707 706 705 704 703 702 701 700 699
764 764 764 763 763 763 762 762 761 761 760 759 758 757 756 755 754 752 751 750 749 747 746 745 743 742 741 739 738 736 735 734 732 732 731 729 728 727 726 725 724 723 722 722 721 720 720 719 718 717 717 716 715 714 712 711 710 708 707 706 704 703 702 701 700 699 698 697 696
763 763 763 762 762 762 761 761 760 759 758 757 756 755 754 753 752 751 750 748 747 746 744 743 741 740 738 737 736 734 733 732 731 730 729 728 727 726 724 723 722 721 721 720 719 718 717 717 716 715 714 713 712 711 710 708 707 706 704 702 701 700 699 698 697 696 695 694 693
762 762 762 761 761 761 760 759 758 758 757 756 755 754 753 752 750 749 748 747 745 744 742 741 739 738 736 735 733 732 731 730 729 728 727 726 725 724 723 722 721 720 719 718 717 716 715 714 713 712 711 710 709 708 707 705 704 702 701 699 698 697 696 695 694 692 692 691 690
761 761 760 760 760 759 758 758 757 756 755 754 753 752 751 750 749 747 746 745 743 742 741 739 737 736 735 733 732 731 729 728 727 726 725 724 723 722 721 720 719 718 717 716 715 714 712 712 711 709 708 707 706 705 704 702 701 699 697 696 695 694 692 692 690 689 688 687 686
759 759 759 759 758 758 757 756 755 755 754 753 752 751 750 749 747 746 744 743 742 740 738 737 736 734 733 732 730 729 728 727 726 725 724 723 722 721 720 718 717 716 715 714 712 711 710 709 708 707 706 705 703 702 701 699 697 696 695 693 692 690 689 688 687 685 684 683 682
758 758 758 757 757 756 756 755 754 753 752 751 750 749 748 747 746 744 742 741 740 738 737 735 734 732 731 730 728 727 726 725 724 723 722 721 720 719 718 716 715 714 712 712 710 709 708 707 706 704 703 702 701 699 698 697 695 693 692 690 688 687 686 685 683 682 681 679 678
757 757 757 756 756 755 754 753 752 752 751 750 749 747 746 745 743 742 741 740 738 737 735 733 732 731 729 728 727 726 725 724 723 722 720 720 719 718 716 715 713 711 710 709 708 707 705 704 703 702 701 700 698 697 695 694 692 690 689 687 685 684 682 681 680 678 677 676 675
756 756 755 755 754 753 753 752 751 750 749 748 747 746 745 743 742 740 739 738 737 735 733 732 730 729 728 727 725 724 723 722 721 720 719 718 717 716 715 713 711 709 708 707 705 704 703 702 700 699 698 697 696 695 693 691 689 687 686 684 682 681 679 678 677 675 673 672 671
755 755 754 753 753 752 751 751 750 749 748 747 746 744 743 742 740 739 738 737 735 734 732 730 729 727 726 725 724 722 721 721 720 719 718 717 716 715 713 712 709 707 706 704 703 702 700 699 698 697 696 695 694 692 691 689 687 685 683 682 680 678 677 676 674 672 671 669 668
754 753 752 752 752 751 750 749 748 747 747 745 744 743 742 740 739 737 736 735 734 732 731 729 727 726 725 723 722 721 720 719 718 717 717 715 714 713 711 710 707 705 704 702 701 699 698 697 696 695 694 693 692 690 688 687 685 683 681 680 678 677 675 673 672 671 669 667 665
752 752 751 751 750 750 749 748 747 746 745 744 743 742 740 739 737 736 735 733 732 731 729 727 726 724 723 722 721 720 718 717 717 716 715 714 712 711 709 707 706 703 702 700 699 697 696 695 693 692 692 691 689 688 687 685 683 682 680 678 677 675 673 672 670 668 667 665 663